﻿測定場所 (Monitoring sites),日付 (Measurement date),時間 (Measurement time),線量率 最大値 (max) μGy/h,線量率 最小値 (min) μGy/h,線量率 平均値 (average) μGy/h,
調布 (Chofu),2014-05-18,23:01～24:00,0.0356,0.0312,0.0334,
調布 (Chofu),2014-05-18,22:01～23:00,0.0350,0.0312,0.0332,
調布 (Chofu),2014-05-18,21:01～22:00,0.0355,0.0316,0.0334,
調布 (Chofu),2014-05-18,20:01～21:00,0.0358,0.0313,0.0330,
調布 (Chofu),2014-05-18,19:01～20:00,0.0346,0.0305,0.0329,
調布 (Chofu),2014-05-18,18:01～19:00,0.0350,0.0307,0.0329,
調布 (Chofu),2014-05-18,17:01～18:00,0.0351,0.0306,0.0330,
調布 (Chofu),2014-05-18,16:01～17:00,0.0349,0.0315,0.0330,
調布 (Chofu),2014-05-18,15:01～16:00,0.0353,0.0311,0.0330,
調布 (Chofu),2014-05-18,14:01～15:00,0.0356,0.0315,0.0329,
調布 (Chofu),2014-05-18,13:01～14:00,0.0354,0.0308,0.0332,
調布 (Chofu),2014-05-18,12:01～13:00,0.0351,0.0309,0.0333,
調布 (Chofu),2014-05-18,11:01～12:00,0.0349,0.0308,0.0330,
調布 (Chofu),2014-05-18,10:01～11:00,0.0354,0.0308,0.0334,
調布 (Chofu),2014-05-18,09:01～10:00,0.0364,0.0308,0.0332,
調布 (Chofu),2014-05-18,08:01～09:00,0.0353,0.0315,0.0335,
調布 (Chofu),2014-05-18,07:01～08:00,0.0363,0.0317,0.0334,
調布 (Chofu),2014-05-18,06:01～07:00,0.0365,0.0314,0.0339,
調布 (Chofu),2014-05-18,05:01～06:00,0.0362,0.0316,0.0338,
調布 (Chofu),2014-05-18,04:01～05:00,0.0350,0.0318,0.0336,
調布 (Chofu),2014-05-18,03:01～04:00,0.0354,0.0311,0.0333,
調布 (Chofu),2014-05-18,02:01～03:00,0.0346,0.0315,0.0332,
調布 (Chofu),2014-05-18,01:01～02:00,0.0355,0.0311,0.0332,
調布 (Chofu),2014-05-18,00:01～01:00,0.0358,0.0313,0.0333,
調布 (Chofu),2014-05-17,23:01～24:00,0.0350,0.0312,0.0334,
調布 (Chofu),2014-05-17,22:01～23:00,0.0358,0.0317,0.0338,
調布 (Chofu),2014-05-17,21:01～22:00,0.0354,0.0316,0.0335,
調布 (Chofu),2014-05-17,20:01～21:00,0.0347,0.0310,0.0330,
調布 (Chofu),2014-05-17,19:01～20:00,0.0359,0.0299,0.0330,
調布 (Chofu),2014-05-17,18:01～19:00,0.0345,0.0307,0.0327,
調布 (Chofu),2014-05-17,17:01～18:00,0.0347,0.0314,0.0330,
調布 (Chofu),2014-05-17,16:01～17:00,0.0352,0.0306,0.0330,
調布 (Chofu),2014-05-17,15:01～16:00,0.0349,0.0312,0.0330,
調布 (Chofu),2014-05-17,14:01～15:00,0.0352,0.0315,0.0330,
調布 (Chofu),2014-05-17,13:01～14:00,0.0347,0.0304,0.0329,
調布 (Chofu),2014-05-17,12:01～13:00,0.0349,0.0308,0.0330,
調布 (Chofu),2014-05-17,11:01～12:00,0.0360,0.0301,0.0330,
調布 (Chofu),2014-05-17,10:01～11:00,0.0350,0.0315,0.0333,
調布 (Chofu),2014-05-17,09:01～10:00,0.0357,0.0312,0.0336,
調布 (Chofu),2014-05-17,08:01～09:00,0.0358,0.0307,0.0334,
調布 (Chofu),2014-05-17,07:01～08:00,0.0355,0.0318,0.0336,
調布 (Chofu),2014-05-17,06:01～07:00,0.0356,0.0316,0.0335,
調布 (Chofu),2014-05-17,05:01～06:00,0.0356,0.0318,0.0338,
調布 (Chofu),2014-05-17,04:01～05:00,0.0361,0.0313,0.0334,
調布 (Chofu),2014-05-17,03:01～04:00,0.0358,0.0304,0.0334,
調布 (Chofu),2014-05-17,02:01～03:00,0.0356,0.0313,0.0334,
調布 (Chofu),2014-05-17,01:01～02:00,0.0355,0.0317,0.0334,
調布 (Chofu),2014-05-17,00:01～01:00,0.0367,0.0314,0.0336,
調布 (Chofu),2014-05-16,23:01～24:00,0.0356,0.0310,0.0332,
調布 (Chofu),2014-05-16,22:01～23:00,0.0359,0.0309,0.0331,
調布 (Chofu),2014-05-16,21:01～22:00,0.0357,0.0313,0.0332,
調布 (Chofu),2014-05-16,20:01～21:00,0.0351,0.0303,0.0331,
調布 (Chofu),2014-05-16,19:01～20:00,0.0344,0.0306,0.0329,
調布 (Chofu),2014-05-16,18:01～19:00,0.0348,0.0311,0.0329,
調布 (Chofu),2014-05-16,17:01～18:00,0.0347,0.0309,0.0330,
調布 (Chofu),2014-05-16,16:01～17:00,0.0348,0.0316,0.0332,
調布 (Chofu),2014-05-16,15:01～16:00,0.0353,0.0317,0.0333,
調布 (Chofu),2014-05-16,14:01～15:00,0.0347,0.0308,0.0330,
調布 (Chofu),2014-05-16,13:01～14:00,0.0352,0.0314,0.0332,
調布 (Chofu),2014-05-16,12:01～13:00,0.0349,0.0309,0.0327,
調布 (Chofu),2014-05-16,11:01～12:00,0.0347,0.0306,0.0327,
調布 (Chofu),2014-05-16,10:01～11:00,0.0347,0.0314,0.0328,
調布 (Chofu),2014-05-16,09:01～10:00,0.0351,0.0313,0.0332,
調布 (Chofu),2014-05-16,08:01～09:00,0.0354,0.0316,0.0334,
調布 (Chofu),2014-05-16,07:01～08:00,0.0360,0.0314,0.0335,
調布 (Chofu),2014-05-16,06:01～07:00,0.0358,0.0317,0.0337,
調布 (Chofu),2014-05-16,05:01～06:00,0.0364,0.0318,0.0338,
調布 (Chofu),2014-05-16,04:01～05:00,0.0353,0.0307,0.0332,
調布 (Chofu),2014-05-16,03:01～04:00,0.0354,0.0311,0.0334,
調布 (Chofu),2014-05-16,02:01～03:00,0.0355,0.0318,0.0335,
調布 (Chofu),2014-05-16,01:01～02:00,0.0358,0.0318,0.0333,
調布 (Chofu),2014-05-16,00:01～01:00,0.0353,0.0313,0.0331,
調布 (Chofu),2014-05-15,23:01～24:00,0.0353,0.0317,0.0334,
調布 (Chofu),2014-05-15,22:01～23:00,0.0355,0.0321,0.0335,
調布 (Chofu),2014-05-15,21:01～22:00,0.0345,0.0309,0.0330,
調布 (Chofu),2014-05-15,20:01～21:00,0.0353,0.0307,0.0327,
調布 (Chofu),2014-05-15,19:01～20:00,0.0340,0.0303,0.0325,
調布 (Chofu),2014-05-15,18:01～19:00,0.0345,0.0303,0.0325,
調布 (Chofu),2014-05-15,17:01～18:00,0.0349,0.0311,0.0325,
調布 (Chofu),2014-05-15,16:01～17:00,0.0344,0.0309,0.0327,
調布 (Chofu),2014-05-15,15:01～16:00,0.0352,0.0302,0.0328,
調布 (Chofu),2014-05-15,14:01～15:00,0.0351,0.0304,0.0326,
調布 (Chofu),2014-05-15,13:01～14:00,0.0351,0.0312,0.0332,
調布 (Chofu),2014-05-15,12:01～13:00,0.0359,0.0306,0.0331,
調布 (Chofu),2014-05-15,11:01～12:00,0.0357,0.0316,0.0339,
調布 (Chofu),2014-05-15,10:01～11:00,0.0382,0.0341,0.0360,
調布 (Chofu),2014-05-15,09:01～10:00,0.0371,0.0324,0.0348,
調布 (Chofu),2014-05-15,08:01～09:00,0.0393,0.0326,0.0358,
調布 (Chofu),2014-05-15,07:01～08:00,0.0436,0.0362,0.0398,
調布 (Chofu),2014-05-15,06:01～07:00,0.0423,0.0363,0.0389,
調布 (Chofu),2014-05-15,05:01～06:00,0.0433,0.0361,0.0387,
調布 (Chofu),2014-05-15,04:01～05:00,0.0403,0.0352,0.0379,
調布 (Chofu),2014-05-15,03:01～04:00,0.0420,0.0343,0.0364,
調布 (Chofu),2014-05-15,02:01～03:00,0.0368,0.0322,0.0346,
調布 (Chofu),2014-05-15,01:01～02:00,0.0358,0.0312,0.0336,
調布 (Chofu),2014-05-15,00:01～01:00,0.0356,0.0312,0.0336,
調布 (Chofu),2014-05-14,23:01～24:00,0.0357,0.0311,0.0335,
調布 (Chofu),2014-05-14,22:01～23:00,0.0356,0.0316,0.0331,
調布 (Chofu),2014-05-14,21:01～22:00,0.0359,0.0313,0.0331,
調布 (Chofu),2014-05-14,20:01～21:00,0.0357,0.0311,0.0331,
調布 (Chofu),2014-05-14,19:01～20:00,0.0349,0.0309,0.0331,
調布 (Chofu),2014-05-14,18:01～19:00,0.0355,0.0303,0.0328,
調布 (Chofu),2014-05-14,17:01～18:00,0.0350,0.0299,0.0324,
調布 (Chofu),2014-05-14,16:01～17:00,0.0351,0.0311,0.0327,
調布 (Chofu),2014-05-14,15:01～16:00,0.0344,0.0307,0.0324,
調布 (Chofu),2014-05-14,14:01～15:00,0.0353,0.0305,0.0327,
調布 (Chofu),2014-05-14,13:01～14:00,0.0345,0.0304,0.0326,
調布 (Chofu),2014-05-14,12:01～13:00,0.0347,0.0316,0.0328,
調布 (Chofu),2014-05-14,11:01～12:00,0.0351,0.0313,0.0331,
調布 (Chofu),2014-05-14,10:01～11:00,0.0351,0.0312,0.0333,
調布 (Chofu),2014-05-14,09:01～10:00,0.0349,0.0320,0.0335,
調布 (Chofu),2014-05-14,08:01～09:00,0.0368,0.0323,0.0340,
調布 (Chofu),2014-05-14,07:01～08:00,0.0374,0.0328,0.0347,
調布 (Chofu),2014-05-14,06:01～07:00,0.0371,0.0336,0.0352,
調布 (Chofu),2014-05-14,05:01～06:00,0.0374,0.0327,0.0351,
調布 (Chofu),2014-05-14,04:01～05:00,0.0368,0.0321,0.0347,
調布 (Chofu),2014-05-14,03:01～04:00,0.0367,0.0315,0.0344,
調布 (Chofu),2014-05-14,02:01～03:00,0.0354,0.0307,0.0335,
調布 (Chofu),2014-05-14,01:01～02:00,0.0358,0.0301,0.0329,
調布 (Chofu),2014-05-14,00:01～01:00,0.0344,0.0291,0.0325,
調布 (Chofu),2014-05-13,23:01～24:00,0.0348,0.0304,0.0325,
調布 (Chofu),2014-05-13,22:01～23:00,0.0346,0.0298,0.0326,
調布 (Chofu),2014-05-13,21:01～22:00,0.0348,0.0301,0.0324,
調布 (Chofu),2014-05-13,20:01～21:00,0.0339,0.0298,0.0323,
調布 (Chofu),2014-05-13,19:01～20:00,0.0346,0.0305,0.0322,
調布 (Chofu),2014-05-13,18:01～19:00,0.0339,0.0298,0.0318,
調布 (Chofu),2014-05-13,17:01～18:00,0.0339,0.0300,0.0320,
調布 (Chofu),2014-05-13,16:01～17:00,0.0346,0.0299,0.0322,
調布 (Chofu),2014-05-13,15:01～16:00,0.0344,0.0297,0.0322,
調布 (Chofu),2014-05-13,14:01～15:00,0.0343,0.0298,0.0323,
調布 (Chofu),2014-05-13,13:01～14:00,0.0345,0.0308,0.0323,
調布 (Chofu),2014-05-13,12:01～13:00,0.0351,0.0312,0.0328,
調布 (Chofu),2014-05-13,11:01～12:00,0.0351,0.0312,0.0333,
調布 (Chofu),2014-05-13,10:01～11:00,0.0366,0.0325,0.0347,
調布 (Chofu),2014-05-13,09:01～10:00,0.0358,0.0311,0.0338,
調布 (Chofu),2014-05-13,08:01～09:00,0.0350,0.0306,0.0331,
調布 (Chofu),2014-05-13,07:01～08:00,0.0355,0.0312,0.0335,
調布 (Chofu),2014-05-13,06:01～07:00,0.0410,0.0332,0.0357,
調布 (Chofu),2014-05-13,05:01～06:00,0.0363,0.0323,0.0341,
調布 (Chofu),2014-05-13,04:01～05:00,0.0398,0.0336,0.0362,
調布 (Chofu),2014-05-13,03:01～04:00,0.0415,0.0363,0.0380,
調布 (Chofu),2014-05-13,02:01～03:00,0.0459,0.0368,0.0409,
調布 (Chofu),2014-05-13,01:01～02:00,0.0453,0.0389,0.0418,
調布 (Chofu),2014-05-13,00:01～01:00,0.0423,0.0349,0.0380,
調布 (Chofu),2014-05-12,23:01～24:00,0.0410,0.0355,0.0379,
調布 (Chofu),2014-05-12,22:01～23:00,0.0412,0.0356,0.0380,
調布 (Chofu),2014-05-12,21:01～22:00,0.0397,0.0322,0.0356,
調布 (Chofu),2014-05-12,20:01～21:00,0.0355,0.0300,0.0328,
調布 (Chofu),2014-05-12,19:01～20:00,0.0350,0.0305,0.0329,
調布 (Chofu),2014-05-12,18:01～19:00,0.0357,0.0311,0.0327,
調布 (Chofu),2014-05-12,17:01～18:00,0.0338,0.0301,0.0324,
調布 (Chofu),2014-05-12,16:01～17:00,0.0338,0.0307,0.0324,
調布 (Chofu),2014-05-12,15:01～16:00,0.0349,0.0299,0.0324,
調布 (Chofu),2014-05-12,14:01～15:00,0.0345,0.0304,0.0324,
調布 (Chofu),2014-05-12,13:01～14:00,0.0346,0.0311,0.0327,
調布 (Chofu),2014-05-12,12:01～13:00,0.0351,0.0312,0.0327,
調布 (Chofu),2014-05-12,11:01～12:00,0.0344,0.0300,0.0327,
調布 (Chofu),2014-05-12,10:01～11:00,0.0347,0.0303,0.0326,
調布 (Chofu),2014-05-12,09:01～10:00,0.0347,0.0297,0.0325,
調布 (Chofu),2014-05-12,08:01～09:00,0.0350,0.0309,0.0330,
調布 (Chofu),2014-05-12,07:01～08:00,0.0353,0.0305,0.0333,
調布 (Chofu),2014-05-12,06:01～07:00,0.0359,0.0321,0.0342,
調布 (Chofu),2014-05-12,05:01～06:00,0.0361,0.0328,0.0344,
調布 (Chofu),2014-05-12,04:01～05:00,0.0355,0.0315,0.0339,
調布 (Chofu),2014-05-12,03:01～04:00,0.0359,0.0315,0.0334,
調布 (Chofu),2014-05-12,02:01～03:00,0.0357,0.0313,0.0332,
調布 (Chofu),2014-05-12,01:01～02:00,0.0352,0.0302,0.0329,
調布 (Chofu),2014-05-12,00:01～01:00,0.0344,0.0305,0.0328,
